User: anonymous   Login
Location: Betra
(48.4113°N, 8.6634°E)
Time: 11:24:49
(UTC+00:00)
Language:

Meteor 1-24 Rocket - Orbit

View from above orbital plane
View from above orbital plane
View from above satellite
View from above satellite

Ground track
Ground track

The orbit data is extracted from the following two-line orbital elements,

1 08800U 76032B   24200.76183841  .00000087  00000-0  40003-4 0  9996
2 08800  81.2481 218.6504 0094947  55.6984 305.3129 14.10415959482813
Epoch (UTC): 18 July 2024 18:17:02
Eccentricity: 0.0094947
inclination: 81.2481°
perigee height: 789 km
apogee height: 926 km
right ascension of ascending node: 218.6504°
argument of perigee: 55.6984°
revolutions per day: 14.10415959
mean anomaly at epoch: 305.3129°
orbit number at epoch: 48281

The dashed part of the orbit path shows where the satellite is in the earth's shadow,  

DLR